Time,TemperatureF,DewpointF,PressureIn,WindDirection,WindDirectionDegrees,WindSpeedMPH,WindSpeedGustMPH,Humidity,HourlyPrecipIn,Conditions,Clouds,dailyrainin,SolarRadiationWatts/m^2,SoftwareType,DateUTC
2013-09-10 00:04:00,63.0,63.0,-100.00,South,180,8.0,14.0,100,0.00,,,0.00,0.000000,,2013-09-10 04:04:00,
2013-09-10 00:43:00,63.0,63.0,-100.00,South,188,10.0,17.0,100,0.00,,,0.00,0.000000,,2013-09-10 04:43:00,
2013-09-10 00:53:00,63.0,63.0,-100.00,South,188,10.0,17.0,100,0.00,,,0.00,0.000000,,2013-09-10 04:53:00,
2013-09-10 01:03:00,63.0,63.0,-100.00,South,188,10.0,17.0,100,0.00,,,0.00,0.000000,,2013-09-10 05:03:00,
2013-09-10 01:43:00,64.0,64.0,-100.00,SSW,199,9.0,15.0,100,0.00,,,0.00,0.000000,,2013-09-10 05:43:00,
2013-09-10 01:53:00,64.0,64.0,-100.00,SSW,199,9.0,15.0,100,0.00,,,0.00,0.000000,,2013-09-10 05:53:00,
2013-09-10 02:03:00,64.0,64.0,-100.00,SSW,199,9.0,15.0,100,0.00,,,0.00,0.000000,,2013-09-10 06:03:00,
2013-09-10 02:43:00,64.0,64.0,-100.00,SSW,209,10.0,19.0,100,0.00,,,0.00,0.000000,,2013-09-10 06:43:00,
2013-09-10 02:52:00,64.0,64.0,-100.00,SSW,209,10.0,19.0,100,0.00,,,0.00,0.000000,,2013-09-10 06:52:00,
2013-09-10 03:01:00,64.0,64.0,-100.00,SSW,209,10.0,19.0,100,0.00,,,0.00,0.000000,,2013-09-10 07:01:00,
2013-09-10 03:42:00,64.0,64.0,-100.00,SW,215,10.0,15.0,100,0.00,,,-99.99,0.000000,,2013-09-10 07:42:00,
2013-09-10 03:52:00,64.0,64.0,-100.00,SW,215,10.0,15.0,100,0.00,,,-99.99,0.000000,,2013-09-10 07:52:00,
2013-09-10 04:02:00,64.0,64.0,-100.00,SW,215,10.0,15.0,100,0.00,,,-99.99,0.000000,,2013-09-10 08:02:00,
2013-09-10 04:42:00,64.0,64.0,-100.00,SW,214,10.0,18.0,100,0.00,,,0.00,0.000000,,2013-09-10 08:42:00,
2013-09-10 04:52:00,64.0,64.0,-100.00,SW,214,10.0,18.0,100,0.00,,,0.00,0.000000,,2013-09-10 08:52:00,
2013-09-10 05:02:00,64.0,64.0,-100.00,SW,214,10.0,18.0,100,0.00,,,0.00,0.000000,,2013-09-10 09:02:00,
2013-09-10 05:43:00,65.0,65.0,-100.00,SW,214,9.0,17.0,100,0.00,,,0.00,0.000000,,2013-09-10 09:43:00,
2013-09-10 05:54:00,65.0,65.0,-100.00,SW,214,9.0,17.0,100,0.00,,,0.00,0.000000,,2013-09-10 09:54:00,
2013-09-10 06:03:00,65.0,65.0,-100.00,SW,214,9.0,17.0,100,0.00,,,0.00,0.000000,,2013-09-10 10:03:00,
2013-09-10 06:43:00,65.0,65.0,-100.00,SSW,212,10.0,15.0,100,0.00,,,0.00,0.000000,,2013-09-10 10:43:00,
2013-09-10 06:53:00,65.0,65.0,-100.00,SSW,212,10.0,15.0,100,0.00,,,0.00,0.000000,,2013-09-10 10:53:00,
2013-09-10 07:03:00,65.0,65.0,-100.00,SSW,212,10.0,15.0,100,0.00,,,0.00,0.000000,,2013-09-10 11:03:00,
2013-09-10 10:42:00,70.0,69.0,-100.00,SW,216,6.0,11.0,98,-99.99,,,0.00,348.000000,,2013-09-10 14:42:00,
2013-09-10 10:52:00,70.0,69.0,-100.00,SW,216,6.0,11.0,98,-99.99,,,0.00,348.000000,,2013-09-10 14:52:00,
2013-09-10 11:02:00,70.0,69.0,-100.00,SW,216,6.0,11.0,98,-99.99,,,0.00,348.000000,,2013-09-10 15:02:00,
2013-09-10 11:43:00,73.0,71.0,-100.00,SW,214,8.0,13.0,94,0.00,,,0.00,436.000000,,2013-09-10 15:43:00,
2013-09-10 11:54:00,73.0,71.0,-100.00,SW,214,8.0,13.0,94,0.00,,,0.00,436.000000,,2013-09-10 15:54:00,
2013-09-10 12:03:00,73.0,71.0,-100.00,SW,214,8.0,13.0,94,0.00,,,0.00,436.000000,,2013-09-10 16:03:00,
2013-09-10 12:43:00,77.0,71.0,-100.00,SW,214,9.0,14.0,83,0.00,,,0.00,678.000000,,2013-09-10 16:43:00,
2013-09-10 12:53:00,77.0,71.0,-100.00,SW,214,9.0,14.0,83,0.00,,,0.00,678.000000,,2013-09-10 16:53:00,
2013-09-10 13:03:00,77.0,71.0,-100.00,SW,214,9.0,14.0,83,0.00,,,0.00,678.000000,,2013-09-10 17:03:00,
2013-09-10 13:43:00,80.0,71.0,-100.00,SSW,203,7.0,12.0,73,0.00,,,0.00,712.000000,,2013-09-10 17:43:00,
2013-09-10 13:53:00,80.0,71.0,-100.00,SSW,203,7.0,12.0,73,0.00,,,0.00,712.000000,,2013-09-10 17:53:00,
2013-09-10 14:02:00,80.0,71.0,-100.00,SSW,203,7.0,12.0,73,0.00,,,0.00,712.000000,,2013-09-10 18:02:00,
2013-09-10 14:43:00,82.0,71.0,-100.00,SW,223,6.0,14.0,70,0.00,,,0.00,689.000000,,2013-09-10 18:43:00,
2013-09-10 14:52:00,82.0,71.0,-100.00,SW,223,6.0,14.0,70,0.00,,,0.00,689.000000,,2013-09-10 18:52:00,
2013-09-10 15:02:00,82.0,71.0,-100.00,SW,223,6.0,14.0,70,0.00,,,0.00,689.000000,,2013-09-10 19:02:00,
2013-09-10 15:42:00,84.0,72.0,-100.00,SW,220,7.0,11.0,68,0.00,,,0.00,607.000000,,2013-09-10 19:42:00,
2013-09-10 15:52:00,84.0,72.0,-100.00,SW,220,7.0,11.0,68,0.00,,,0.00,607.000000,,2013-09-10 19:52:00,
2013-09-10 16:02:00,84.0,72.0,-100.00,SW,220,7.0,11.0,68,0.00,,,0.00,607.000000,,2013-09-10 20:02:00,
2013-09-10 16:42:00,84.0,72.0,-100.00,SW,219,8.0,13.0,67,0.00,,,0.00,482.000000,,2013-09-10 20:42:00,
2013-09-10 16:52:00,84.0,72.0,-100.00,SW,219,8.0,13.0,67,0.00,,,0.00,482.000000,,2013-09-10 20:52:00,
2013-09-10 17:03:00,84.0,72.0,-100.00,SW,219,8.0,13.0,67,0.00,,,0.00,482.000000,,2013-09-10 21:03:00,
2013-09-10 17:44:00,84.0,71.0,-100.00,SW,215,8.0,14.0,65,0.00,,,0.00,339.000000,,2013-09-10 21:44:00,
2013-09-10 17:54:00,84.0,71.0,-100.00,SW,215,8.0,14.0,65,0.00,,,0.00,339.000000,,2013-09-10 21:54:00,
2013-09-10 18:04:00,84.0,71.0,-100.00,SW,215,8.0,14.0,65,0.00,,,0.00,339.000000,,2013-09-10 22:04:00,
2013-09-10 18:42:00,83.0,71.0,-100.00,SW,215,7.0,11.0,67,0.00,,,0.00,201.000000,,2013-09-10 22:42:00,
2013-09-10 18:55:00,83.0,71.0,-100.00,SW,215,7.0,11.0,67,0.00,,,0.00,201.000000,,2013-09-10 22:55:00,
2013-09-10 19:03:00,83.0,71.0,-100.00,SW,215,7.0,11.0,67,0.00,,,0.00,201.000000,,2013-09-10 23:03:00,
2013-09-10 19:42:00,80.0,71.0,-100.00,SSW,209,8.0,11.0,73,0.00,,,0.00,47.000000,,2013-09-10 23:42:00,
2013-09-10 19:53:00,80.0,71.0,-100.00,SSW,209,8.0,11.0,73,0.00,,,0.00,47.000000,,2013-09-10 23:53:00,
2013-09-10 20:02:00,80.0,71.0,-100.00,SSW,209,8.0,11.0,73,0.00,,,0.00,47.000000,,2013-09-11 00:02:00,
2013-09-10 20:42:00,80.0,70.0,-100.00,SW,216,8.0,13.0,72,0.00,,,-99.99,4.000000,,2013-09-11 00:42:00,
2013-09-10 20:52:00,80.0,70.0,-100.00,SW,216,8.0,13.0,72,0.00,,,-99.99,4.000000,,2013-09-11 00:52:00,
2013-09-10 21:02:00,80.0,70.0,-100.00,SW,216,8.0,13.0,72,0.00,,,-99.99,4.000000,,2013-09-11 01:02:00,
2013-09-10 21:42:00,79.0,70.0,-100.00,SSW,212,8.0,15.0,74,0.00,,,0.00,0.000000,,2013-09-11 01:42:00,
2013-09-10 21:53:00,79.0,70.0,-100.00,SSW,212,8.0,15.0,74,0.00,,,0.00,0.000000,,2013-09-11 01:53:00,
2013-09-10 22:02:00,79.0,70.0,-100.00,SSW,212,8.0,15.0,74,0.00,,,0.00,0.000000,,2013-09-11 02:02:00,
2013-09-10 22:43:00,78.0,70.0,-100.00,SW,217,9.0,14.0,76,0.00,,,0.00,0.000000,,2013-09-11 02:43:00,
2013-09-10 22:52:00,78.0,70.0,-100.00,SW,217,9.0,14.0,76,0.00,,,0.00,0.000000,,2013-09-11 02:52:00,
2013-09-10 23:02:00,78.0,70.0,-100.00,SW,217,9.0,14.0,76,0.00,,,0.00,0.000000,,2013-09-11 03:02:00,
2013-09-10 23:45:00,77.0,70.0,-100.00,SW,214,8.0,14.0,79,0.00,,,0.00,0.000000,,2013-09-11 03:45:00,
2013-09-10 23:55:00,77.0,70.0,-100.00,SW,214,8.0,14.0,79,0.00,,,0.00,0.000000,,2013-09-11 03:55:00,